BEL1TE EBBR-LGKO

Flight info

Callsign BEL1TE
Flight time N/A
Altitude 35000
Route SOPOK Y863 ROPUV L607 EMGOD DCT BOMBI DCT DETEV DCT DINKU DCT BESNI DCT LATLO DCT OBEDI DCT PODET DCT SOMUN DCT NISVA Y505 NIKTI UN127 LMO UL618 MES UN139 LURUS UL995 KOPAR
Aircraft A20N/M-DE3FGHIJ1LORVWY/HB1G1

Departure

Time N/A
Airport Brussels Airport (EBBR)

Arrival

Time 2026-05-01 07:47
Airport Kos International Airport "Ippokratis" (LGKO)
Time Latitude Longitude Altitude Speed Heading
2026-05-01 07:23 38.32370 25.87714 35054 ft 461 kts 171°
2026-05-01 07:24 38.23138 25.91435 34909 ft 466 kts 169°
2026-05-01 07:24 38.20101 25.92810 34700 ft 465 kts 169°
2026-05-01 07:24 38.17075 25.94194 34489 ft 463 kts 169°
2026-05-01 07:24 38.14050 25.95578 34275 ft 463 kts 169°
2026-05-01 07:25 38.10963 25.96987 33950 ft 463 kts 169°
2026-05-01 07:25 38.07960 25.98354 33448 ft 464 kts 169°
2026-05-01 07:25 38.04881 25.99752 32790 ft 466 kts 169°
2026-05-01 07:25 38.01836 26.01131 32068 ft 470 kts 168°
2026-05-01 07:26 37.98769 26.02519 31328 ft 473 kts 168°
2026-05-01 07:26 37.95653 26.03934 30680 ft 473 kts 168°
2026-05-01 07:26 37.92536 26.05351 30015 ft 471 kts 167°
2026-05-01 07:26 37.89471 26.06746 29345 ft 469 kts 167°
2026-05-01 07:27 37.86373 26.08149 28680 ft 467 kts 167°
2026-05-01 07:27 37.83332 26.09526 27998 ft 465 kts 167°
2026-05-01 07:27 37.80322 26.10889 27396 ft 461 kts 167°
2026-05-01 07:27 37.77300 26.12258 26960 ft 453 kts 167°
2026-05-01 07:28 37.74366 26.13584 26500 ft 447 kts 167°
2026-05-01 07:28 37.71431 26.14899 26058 ft 441 kts 167°
2026-05-01 07:28 37.68589 26.16168 25612 ft 436 kts 167°
2026-05-01 07:28 37.65732 26.17445 25157 ft 432 kts 167°
2026-05-01 07:29 37.62912 26.18709 24706 ft 427 kts 167°
2026-05-01 07:29 37.60110 26.19964 24269 ft 423 kts 167°
2026-05-01 07:29 37.57383 26.21186 23796 ft 421 kts 167°
2026-05-01 07:29 37.54616 26.22426 23282 ft 420 kts 166°
2026-05-01 07:30 37.51930 26.23875 22769 ft 423 kts 159°
2026-05-01 07:30 37.49311 26.25589 22285 ft 420 kts 157°
2026-05-01 07:30 37.46772 26.27313 21907 ft 416 kts 157°
2026-05-01 07:30 37.44213 26.29040 21524 ft 414 kts 157°
2026-05-01 07:31 37.41686 26.30725 21143 ft 411 kts 157°
2026-05-01 07:31 37.34145 26.35683 20006 ft 403 kts 158°
2026-05-01 07:32 37.29189 26.38915 19249 ft 399 kts 158°
2026-05-01 07:32 37.26730 26.40515 18875 ft 397 kts 157°
2026-05-01 07:33 37.21864 26.43680 18115 ft 390 kts 157°
2026-05-01 07:33 37.19463 26.45239 17747 ft 389 kts 157°
2026-05-01 07:33 37.14696 26.48332 17000 ft 384 kts 157°
2026-05-01 07:34 37.12319 26.49873 16632 ft 382 kts 157°
2026-05-01 07:34 37.07616 26.52921 15884 ft 379 kts 157°
2026-05-01 07:34 37.05289 26.54426 15515 ft 377 kts 157°
2026-05-01 07:35 37.02958 26.55933 15144 ft 376 kts 157°
2026-05-01 07:35 37.00639 26.57430 14765 ft 373 kts 156°
2026-05-01 07:35 36.98364 26.58901 14397 ft 371 kts 156°
2026-05-01 07:35 36.96053 26.60394 14024 ft 370 kts 156°
2026-05-01 07:36 36.93752 26.61881 13648 ft 368 kts 156°
2026-05-01 07:36 36.91487 26.63345 13275 ft 366 kts 156°
2026-05-01 07:36 36.89221 26.64804 12898 ft 364 kts 157°
2026-05-01 07:36 36.86980 26.66245 12527 ft 359 kts 157°
2026-05-01 07:37 36.82745 26.69303 11775 ft 352 kts 144°
2026-05-01 07:37 36.80984 26.71434 11399 ft 350 kts 136°
2026-05-01 07:37 36.79377 26.73668 11031 ft 346 kts 134°
2026-05-01 07:38 36.77800 26.75907 10658 ft 342 kts 134°
2026-05-01 07:38 36.76225 26.78129 10284 ft 337 kts 135°
2026-05-01 07:38 36.73133 26.82420 9526 ft 329 kts 135°
2026-05-01 07:39 36.71599 26.84530 9153 ft 325 kts 135°
2026-05-01 07:39 36.70112 26.86599 8809 ft 321 kts 131°
2026-05-01 07:39 36.67832 26.91297 8175 ft 314 kts 117°
2026-05-01 07:40 36.66887 26.93727 7846 ft 309 kts 117°
2026-05-01 07:40 36.65958 26.96125 7515 ft 305 kts 117°
2026-05-01 07:40 36.65048 26.98442 7254 ft 299 kts 117°
2026-05-01 07:40 36.64127 27.00758 7005 ft 293 kts 117°
2026-05-01 07:41 36.63227 27.03018 6623 ft 295 kts 115°
2026-05-01 07:41 36.62690 27.05468 6122 ft 298 kts 93°
2026-05-01 07:41 36.62789 27.10632 5132 ft 301 kts 85°
2026-05-01 07:42 36.62905 27.13221 4618 ft 295 kts 85°
2026-05-01 07:42 36.63094 27.15687 4116 ft 283 kts 75°
2026-05-01 07:42 36.63686 27.17970 3619 ft 270 kts 64°
2026-05-01 07:42 36.64711 27.19825 3150 ft 254 kts 36°
2026-05-01 07:43 36.66206 27.20697 2988 ft 230 kts
2026-05-01 07:43 36.67744 27.20439 2948 ft 217 kts 333°
2026-05-01 07:43 36.69826 27.17929 2449 ft 207 kts 310°
2026-05-01 07:44 36.71640 27.15434 2030 ft 177 kts 321°
2026-05-01 07:44 36.73494 27.13756 1562 ft 149 kts 328°
2026-05-01 07:45 36.74336 27.13096 1332 ft 135 kts 330°
2026-05-01 07:45 36.75108 27.12502 1157 ft 129 kts 330°
2026-05-01 07:45 36.75870 27.11907 1012 ft 129 kts 329°
2026-05-01 07:45 36.76629 27.11295 829 ft 129 kts 329°
2026-05-01 07:46 36.77375 27.10710 655 ft 128 kts 331°
2026-05-01 07:46 36.78138 27.10137 495 ft 127 kts 330°
2026-05-01 07:46 36.79404 27.09156 404 ft 55 kts 328°
2026-05-01 07:47 36.79594 27.09008 410 ft 16 kts 329°
2026-05-01 07:47 36.79702 27.08986 412 ft 14 kts 357°
2026-05-01 07:47 36.79802 27.08982 413 ft 14 kts 359°
2026-05-01 07:47 36.79895 27.08979 415 ft 12 kts 358°
2026-05-01 07:48 36.80041 27.08898 418 ft 11 kts 328°
2026-05-01 07:48 36.80085 27.08888 419 ft 5 kts 28°
2026-05-01 07:48 36.80108 27.08904 420 ft 1 kts 28°
2026-05-01 07:49 36.80116 27.08909 421 ft 1 kts 28°
2026-05-01 07:49 36.80134 27.08921 422 ft 0 kts 28°